TimeMDT,TemperatureF,Dew PointF,Humidity,Sea Level PressureIn,VisibilityMPH,Wind Direction,Wind SpeedMPH,Gust SpeedMPH,PrecipitationIn,Events,Conditions,WindDirDegrees,DateUTC
12:53 AM,70.0,60.1,71,29.83,10.0,ESE,8.1,-,N/A,,Clear,120,2013-07-16 06:53:00
1:53 AM,69.1,59.0,70,29.84,10.0,ESE,8.1,-,N/A,,Clear,110,2013-07-16 07:53:00
2:53 AM,68.0,59.0,73,29.84,10.0,SE,10.4,-,N/A,,Clear,130,2013-07-16 08:53:00
3:53 AM,69.1,57.9,68,29.84,10.0,SSE,9.2,-,N/A,,Clear,150,2013-07-16 09:53:00
4:53 AM,66.0,59.0,78,29.85,10.0,ESE,9.2,-,N/A,,Clear,110,2013-07-16 10:53:00
5:53 AM,64.9,59.0,81,29.87,10.0,East,9.2,-,N/A,,Clear,100,2013-07-16 11:53:00
6:53 AM,66.0,57.9,75,29.88,10.0,East,8.1,-,N/A,,Clear,100,2013-07-16 12:53:00
7:53 AM,70.0,57.9,65,29.90,10.0,ESE,8.1,-,N/A,,Clear,110,2013-07-16 13:53:00
8:53 AM,73.0,57.9,59,29.93,10.0,ESE,6.9,-,N/A,,Clear,110,2013-07-16 14:53:00
9:53 AM,77.0,57.9,52,29.92,10.0,SE,3.5,-,N/A,,Partly Cloudy,130,2013-07-16 15:53:00
10:53 AM,79.0,59.0,50,29.91,10.0,Calm,Calm,-,N/A,,Partly Cloudy,0,2013-07-16 16:53:00
11:53 AM,82.0,57.0,42,29.90,10.0,West,4.6,-,N/A,,Scattered Clouds,280,2013-07-16 17:53:00
12:53 PM,84.0,57.0,40,29.88,10.0,NW,11.5,18.4,N/A,,Scattered Clouds,310,2013-07-16 18:53:00
1:53 PM,87.1,53.1,31,29.85,10.0,WNW,9.2,-,N/A,,Scattered Clouds,290,2013-07-16 19:53:00
2:53 PM,90.0,53.1,28,29.81,10.0,West,10.4,-,N/A,,Scattered Clouds,260,2013-07-16 20:53:00
3:53 PM,88.0,52.0,29,29.79,10.0,West,10.4,-,N/A,,Scattered Clouds,270,2013-07-16 21:53:00
4:53 PM,88.0,51.1,28,29.79,10.0,NW,6.9,-,N/A,,Scattered Clouds,310,2013-07-16 22:53:00
5:53 PM,89.1,53.1,29,29.76,10.0,WNW,12.7,-,N/A,,Clear,290,2013-07-16 23:53:00
6:53 PM,88.0,51.1,28,29.78,10.0,NW,10.4,-,N/A,,Clear,310,2013-07-17 00:53:00
7:53 PM,86.0,52.0,31,29.78,10.0,NW,9.2,-,N/A,,Clear,310,2013-07-17 01:53:00
8:53 PM,82.0,54.0,38,29.79,10.0,NW,4.6,-,N/A,,Clear,320,2013-07-17 02:53:00
9:53 PM,78.8,53.6,42,29.84,10.0,South,4.6,-,N/A,,Clear,170,2013-07-17 03:53:00
10:53 PM,79.0,54.0,42,29.86,10.0,ESE,13.8,-,N/A,,Partly Cloudy,110,2013-07-17 04:53:00
11:53 PM,75.9,53.1,45,29.89,10.0,ESE,19.6,26.5,N/A,,Mostly Cloudy,120,2013-07-17 05:53:00